Location: Asheville, NC
(35.6000°N, 82.5500°W)
Time: 12:19:16
(UTC-04:00)

Vanguard 2 Rocket - Pass Details

Date: 16 December 2017
Orbit: 553 x 3328 km, 32.9° (Epoch: 23 June)

Event Time Altitude Azimuth Distance (km) Brightness Sun altitude
Rises 00:25:46 0° 283° (WNW) 6,472 11.3 -77.7°
Enters shadow 00:28:04 - 281° (W) 6,028 11.1 -77.7°
Reaches altitude 10° 00:29:44 10° 280° (W) 5,719 - -77.7°
Maximum altitude 00:47:59 57° 208° (SSW) 3,700 - -76.8°
Drops below altitude 10° 01:06:24 10° 135° (SE) 5,739 - -74.9°
Exits shadow 01:08:54 - 133° (SE) 6,204 11.1 -74.6°
Sets 01:10:25 0° 132° (SE) 6,492 11.3 -74.4°
